This is the latest recevied weather packets stored in our database for station/object WD7CGF. If no packets are shown the sender has not sent any weather packets the latest 10 day(s).
| Time | Temp. | Humidity | Pressure | Rain* | Wind** | Luminosity | Snow |
|---|---|---|---|---|---|---|---|
| 1787925524 | 11.67° C | 86% | 1015.1 hPa | 0 mm | - | - | - |
| 1787924917 | 11.67° C | 86% | 1015.1 hPa | 0 mm | - | - | - |
| 1787924330 | 11.67° C | 85% | 1015.1 hPa | 0 mm | - | - | - |
| 1787923722 | 11.67° C | 85% | 1015.1 hPa | 0 mm | - | - | - |
| 1787923114 | 11.67° C | 84% | 1015.1 hPa | 0 mm | - | - | - |
| 1787922527 | 11.67° C | 84% | 1015.1 hPa | 0 mm | - | - | - |
| 1787921921 | 11.67° C | 86% | 1015.1 hPa | 0 mm | - | - | - |
| 1787921314 | 11.11° C | 85% | 1015.1 hPa | 0 mm | - | - | - |
| 1787920731 | 11.67° C | 85% | 1015.2 hPa | 0 mm | - | - | - |
| 1787920124 | 11.67° C | 83% | 1015.1 hPa | 0 mm | - | - | - |
| 1787919516 | 12.22° C | 81% | 1015.1 hPa | 0 mm | - | - | - |
| 1787918913 | 12.22° C | 80% | 1015.1 hPa | 0 mm | - | - | - |
| 1787918326 | 12.78° C | 79% | 1014.9 hPa | 0 mm | - | - | - |
| 1787917721 | 12.78° C | 79% | 1014.9 hPa | 0 mm | - | - | - |
| 1787917114 | 13.33° C | 78% | 1014.7 hPa | 0 mm | - | - | - |
| 1787916512 | 13.33° C | 76% | 1014.9 hPa | 0 mm | - | - | - |
| 1787915925 | 13.89° C | 76% | 1014.9 hPa | 0 mm | - | - | - |
| 1787915321 | 13.89° C | 75% | 1015.6 hPa | 0 mm | - | - | - |
| 1787914715 | 13.89° C | 75% | 1015.5 hPa | 0 mm | - | - | - |
| 1787914130 | 14.44° C | 74% | 1015.5 hPa | 0 mm | - | - | - |
| 1787913521 | 14.44° C | 74% | 1015.5 hPa | 0 mm | - | - | - |
| 1787912915 | 14.44° C | 74% | 1015.4 hPa | 0 mm | - | - | - |
| 1787912328 | 14.44° C | 74% | 1015.4 hPa | 0 mm | - | - | - |
| 1787911724 | 14.44° C | 73% | 1015.2 hPa | 0 mm | - | - | - |
| 1787911117 | 15° C | 73% | 1015.3 hPa | 0 mm | - | - | - |
* Rain latest hour (hover to see other rain measurements)
** Current wind speed in m/s (hover to see current wind gust speed)